Regional Weather Roundup
Issued by NWS Burlington, VT

Home | Current Version | Previous Version | Graphics & Text | Print | Product List | Glossary On
Versions: 1 2 3 4 5 6 7 8 9 10 11 12 13 14 15 16 17 18 19 20 21 22 23 24 25 26 27 28 29 30 31 32 33 34 35 36 37 38 39 40 41 42 43 44 45 46 47 48 49 50
090
ASUS41 KBTV 282230
RWRBTV
VERMONT REGIONAL WEATHER ROUNDUP
NATIONAL WEATHER SERVICE BURLINGTON VT
600 PM EDT SAT MAY 28 2016

NOTE: "FAIR" INDICATES FEW OR NO CLOUDS BELOW 12,000 FEET WITH NO
SIGNIFICANT WEATHER AND/OR OBSTRUCTIONS TO VISIBILITY.

* THESE REPORTS ARE NOT UNDER NWS QUALITY CONTROL AND/OR DO NOT
  REPORT WEATHER SUCH AS PRECIPITATION AND FOG.

VTZ001>019-282300-
_____VERMONT_____


CITY           SKY/WX    TMP DP  RH WIND       PRES   REMARKS
BURLINGTON     PTSUNNY   88  59  37 NW9       30.06S
MONTPELIER     FAIR      84  58  40 NW3       30.13S
MORRISVILLE    FAIR      86  55  34 N7        30.10S
ST. JOHNSBURY*   N/A     87  53  31 MISG      30.06S
LYNDONVILLE*   FAIR      82  57  43 NW8       30.13S
RUTLAND*       FAIR      87  60  40 SW6       30.08S
SPRINGFIELD    FAIR      89  56  32 VRB3      30.06S
HIGHGATE*      FAIR      86  59  40 N6        30.07S
NEWPORT*       FAIR      79  61  55 N8        30.12S
BENNINGTON     FAIR      89  59  36 N3        30.08S
MT. MANSFIELD*   N/A     72 N/A N/A N5          N/A

_____LAKE CHAMPLAIN_____


CITY           SKY/WX    TMP DP  RH WIND       PRES   REMARKS
BURTON ISLAND*   N/A     82  59  44 NW1         N/A
COLCHESTER RF*   N/A     82  59  44 N9          N/A
DIAMOND ISL*     N/A     82  59  44 N16         N/A

$$

NYZ007-026>031-035-052-083-087-282300-
_____NORTHERN NEW YORK_____


CITY           SKY/WX    TMP DP  RH WIND       PRES   REMARKS
PLATTSBURGH    MOSUNNY   84  59  42 NE6       30.07S
SARANAC LAKE   SUNNY     82  57  42 CALM      30.11S
MASSENA        SUNNY     88  64  44 SW5       30.04F
OGDENSBURG*    SUNNY     90  57  33 SW5       30.03F
WATERTOWN      CLOUDY    83  62  49 W6        30.05S
ALBANY         PTSUNNY   92  59  33 W10       30.04S HX  91
GLENS FALLS    SUNNY     88  64  44 SE6       30.04S

$$
NHZ002-005-011-282300-
_____NEW HAMPSHIRE_____


CITY           SKY/WX    TMP DP  RH WIND       PRES   REMARKS
LEBANON        CLOUDY    92  56  29 W3        30.05S HX  90
MT WASHINGTON  PTSUNNY   59  52  77 W20G30      N/A
PLYMOUTH       FAIR      89  56  32 W5        30.05S
WHITEFIELD     MOSUNNY   85  60  42 N13       30.10R

$$

_____REGIONAL QUEBEC LOCATIONS_____


CITY           SKY/WX    TMP DP  RH WIND       PRES   REMARKS
MONTREAL       CLOUDY    81  59  47 NE10      30.07S
QUEBEC CITY    PTSUNNY   63  50  63 E10       30.18R
SHERBROOKE     MOSUNNY   79  52  38 NW5       30.11F

_____REGIONAL ONTARIO LOCATIONS_____


CITY           SKY/WX    TMP DP  RH WIND       PRES   REMARKS
OTTAWA         PTSUNNY   86  66  51 SE8       30.02F

______KEY______
VSB  - VISIBILITY IN MILES
WCI  - WIND CHILL INDEX
HX   - HEAT INDEX
$$
NNNN




USA.gov is the U.S. government's official web portal to all federal, state and local government web resources and services.